www.pogodaiklimat.ru

Погода и климат >> Архив погоды >> Россия >> Якутия >> Колымская


ПОГОДА в Колымской

  • Прогноз погоды в Колымской
  • Монитор погоды в Колымской

АРХИВ ПОГОДЫ в Колымской

Время (UTC), дата Ветер
(напр.,м/с)
 
Видим.   Явления Облачность Т
(С)
Тd
(С)
f
(%)
Тe
(С)
Тes
(С)
Комфортность P
(гПа)
Po
(гПа)
Тmin
(С)
Tmax
(С)
R
(мм)
R24
(мм)
S
(см)
15 17.04 В 5 20 км 3/0
[As trans]
-13.1 -14.4 90 -21 -21 1020.7 1019.1
18 17.04 В 5 20 км в посл. час зёрна 6/0
[]
-13.1 -14.4 90 -21 -21 1019.5 1017.9
21 17.04 В 7 20 км 3/0
[Ci fib]
-8.8 -12.2 76 -18 -17 1017.5 1016.0 -14.9 61
00 18.04 В 7-10
{10}
20 км 3/0
[Ci fib]
-2.8 -9.0 62 -10 -9 1014.9 1013.4
03 18.04 В 5
{10}
20 км 6/0
[Ci]
+0.4 -7.0 58 -5 -2 1012.7 1011.2
06 18.04 ЮВ 7 20 км 6/0
[As trans]
+0.4 -6.6 59 -6 -6 1009.8 1008.3
09 18.04 ЮВ 5 20 км 10/0
[As op]
-0.3 -9.0 52 -6 -6 1008.6 1007.1 +1.5
12 18.04 ЮВ 5
{14}
20 км 10/10 600 м
[Sc]
+0.1 -6.6 61 -5 -5 1007.6 1006.1
15 18.04 Ю 5 20 км 8/8 600 м
[Sc Ac trans]
-0.7 -6.3 66 -7 -7 1006.8 1005.3
18 18.04 Ю 5 20 км 8/8 300 м
[Sc Ac trans]
-2.0 -5.2 79 -8 -8 1007.0 1005.5
21 18.04 ЮЗ 10-14
{16}
20 км 10/10 300 м
[Sc]
-6.9 -8.6 88 -17 -17 1010.0 1008.5 -7.0
00 19.04 З 8-10
{16}
10 км слаб. снег {метель} 10/4 300 м
[Sc As op]
-8.8 -11.2 83 -18 -18 1014.5 1013.0 -8.9
03 19.04 З 9-13
{15}
10 км слаб. снег {метель} 10/0
[As op]
-9.2 -12.2 79 -19 -19 1017.7 1016.2
06 19.04 З 8-10
{15}
20 км {снег, метель} 8/0
[As op]
-8.6 -12.4 74 -18 -18 1020.2 1018.7
09 19.04 З 7
{14}
20 км {метель} ясно -11.2 -16.5 65 -20 -20 1022.9 1021.4 -6.8 0.0
12 19.04 З 4 20 км {метель} ясно -13.7 -18.0 70 -21 -21 1024.7 1023.1
15 19.04 ЮЗ 3 20 км ясно -15.1 -18.5 75 -22 -22 1025.2 1023.6
18 19.04 ЮЗ 4 20 км ясно -18.1 -20.7 80 -27 -26 1025.2 1023.6
21 19.04 Ю 2 20 км ясно -16.0 -19.4 75 -21 -18 1025.0 1023.4 -19.0 61
00 20.04 С 1 20 км 10/0
[Ci fib]
-11.1 -17.3 60 -13 -7 1024.8 1023.2
03 20.04 С 2 20 км 10/0
[Cs]
-12.0 -16.4 70 -17 -12 1024.3 1022.7
06 20.04 С 2 20 км 10/0
[Cs]
-11.4 -15.8 70 -16 -14 1024.1 1022.5
09 20.04 СЗ 2 20 км 4/0
[Ci fib]
-13.8 -16.5 80 -19 -19 1024.9 1023.3 -10.9
12 20.04 З 2 20 км ясно -17.5 -18.7 90 -23 -23 1025.7 1024.1
15 20.04 ЮЗ 3 20 км ясно -18.6 -19.8 90 -26 -26 1026.1 1024.6
18 20.04 ЮЗ 3 20 км ясно -21.4 -23.2 85 -29 -29 1026.5 1024.9
21 20.04 ЮЗ 2 20 км ясно -19.5 -21.4 85 -25 -22 1027.1 1025.5 -22.1 61
00 21.04 штиль 0 20 км ясно -9.8 -17.0 56 -10 -1 1026.9 1025.4
03 21.04 СВ 1 20 км ясно -5.7 -14.7 49 -7 0 1027.0 1025.5
06 21.04 СВ 3 20 км 1/0
[Ci fib]
-8.3 -13.0 69 -14 -12 1026.5 1025.0
09 21.04 В 4 20 км 1/0
[Ci fib]
-12.2 -16.6 70 -19 -19 1026.2 1024.6 -3.9
12 21.04 В 5 20 км 1/0
[Ci fib]
-17.1 -19.7 80 -26 -26 1025.7 1024.1
15 21.04 В 4 20 км 1/0
[Ci fib]
-18.5 -19.7 90 -27 -27 1025.2 1023.6
18 21.04 В 4 20 км 1/0
[Ci fib]
-18.5 -20.4 85 -27 -27 1024.3 1022.7
21 21.04 В 4 20 км ясно -15.0 -18.4 75 -23 -21 1023.5 1021.9 -18.9 61
00 22.04 В 5 20 км ясно +9.0 -14.0 18 +7 +10 1022.2 1020.7
03 22.04 В 5 20 км ясно -4.8 -11.5 59 -11 -8 1020.1 1018.6
06 22.04 В 8-11
{12}
20 км ясно -3.3 -10.2 59 -11 -11 1018.6 1017.1
09 22.04 В 6
{12}
20 км 3/0
[As op]
-5.2 -10.7 65 -13 -13 1018.2 1016.7 -3.2
12 22.04 ЮВ 5 20 км 3/0
[As op]
-8.7 -13.0 71 -16 -16 1018.0 1016.5
15 22.04 В 6 20 км ясно -11.0 -14.6 75 -20 -20 1017.3 1015.8
18 22.04 ЮВ 5 20 км ясно -11.7 -16.1 70 -20 -20 1016.3 1014.8
21 22.04 ЮВ 6 20 км 9/0
[Cs]
-8.7 -14.7 62 -17 -16 1015.7 1014.2 -11.8 61
00 23.04 В 6 20 км 10/0
[Cs]
-3.5 -10.5 58 -10 -8 1015.3 1013.8
03 23.04 ЮВ 7 20 км 8/0
[Ci fib]
-0.2 -7.1 60 -7 -5 1014.6 1013.1
06 23.04 ЮВ 5 20 км 6/0
[Ci fib]
+0.9 -5.9 60 -4 -3 1014.1 1012.6
09 23.04 В 4 20 км 9/0
[As trans]
-1.8 -6.7 69 -7 -7 1014.5 1013.0 +1.1
12 23.04 ЮВ 4 20 км 9/0
[Ac As]
-2.7 -7.6 69 -8 -8 1014.7 1013.2
15 23.04 ЮВ 5 20 км 8/0
[As trans]
-5.7 -8.7 79 -13 -13 1014.6 1013.1
18 23.04 В 5 20 км 10/0
[As trans Ci fib]
-8.7 -11.1 83 -16 -16 1014.4 1012.9
21 23.04 В 7 20 км 8/0
[Ac trans Cs]
-6.5 -10.1 76 -15 -14 1013.7 1012.2 -8.8 61
00 24.04 В 6 20 км 8/0
[Cs]
-2.4 -7.6 67 -9 -7 1013.4 1011.9
03 24.04 ЮВ 5 20 км 4/0
[Cs]
+0.8 -5.3 64 -5 -1 1012.4 1010.9
06 24.04 ЮВ 4 20 км 8/0
[Ac As]
+1.2 -4.4 66 -4 -3 1011.6 1010.1
09 24.04 В 3 20 км 10/0
[As op]
+0.7 -2.6 79 -4 -4 1011.5 1010.0 +3.1

 

Местоположение метеостанции Колымская (Якутия, Россия): широта 68.72 долгота 158.60 высота над уровнем моря 12 м.

В архиве по умолчанию представлена погода в Колымской за последнюю неделю. Архивные данные за месяц целиком и за предыдущие месяцы, начиная с января 2011 года, Вы можете получить, выбрав интересующий диапазон дат из раскрывающегося списка и нажав кнопку "Ввод!".


*Определитесь, кто Вы:
робот инопланетянин человек

Внимание! Время в таблицах - всемирное. Для получения местного времени необходимо прибавить поправку, которая равна 11 ч.

Смотрите также архив погоды в соседних городах и на ближайших метеорологических станциях:

Погода в Черском (Якутия, Россия) (109 км)
Погода в Константиновской (Чукотка, Россия) (120 км)
Погода в Анюйске (Чукотка, Россия) (125 км)
Погода в Андрюшкино (Якутия, Россия) (171 км)
Погода в Бухте Амбарчик (Чукотка, Россия) (177 км)
Погода в Островном (Чукотка, Россия) (235 км)
Погода в Среднеколымске (Якутия, Россия) (248 км)
Погода в Раучуе (Чукотка, Россия) (325 км)
Погода в Билибино (Чукотка, Россия) (328 км)
Погода в Баимке (Чукотка, Россия) (340 км)

Пояснения к столбцам:

Ветер - указаны скорость ветра в м/с - средняя за 10 мин, порывы в срок и между сроками (в фигурных скобках) и направление, откуда дует ветер: С - северный, СВ - северо-восточный, В - восточный, ЮВ - юго-восточный, Ю - южный, ЮЗ - юго-западный, З - западный, СЗ - северо-западный.
Видимость - горизонтальная дальность видимости в метрах или километрах. При видимости от 1 до 10 км при отсутствии осадков обычно наблюдается дымка, при ухудшении видимости до 1 км и менее - туман. В сухую погоду видимость может ухудшаться дымом, пылью или мглою.
Явления - указаны атмосферные явления, наблюдавшиеся в срок или в последний час перед сроком; фигурными скобками обозначены явления, наблюдавшиеся между сроками (за 1-3 часа до срока); квадратными скобками обозначены град или гололедные отложения с указанием их диаметра в мм.
Облачность - указаны через наклонную черту общая и нижняя облачность в баллах и высота нижней границы облаков в метрах; квадратными скобками обозначены формы облаков: Ci - перистые, Cs - перисто-слоистые, Cc - перисто-кучевые, Ac - высококучевые, As - высокослоистые, Sc - слоисто-кучевые, Ns - слоисто-дождевые, Cu - кучевые, Cb - кучево-дождевые. Подробнее классификацию облаков см. в Атласе облаков (PDF).
T - Температура воздуха - температура, измеренная на высоте 2 м над землей.
Td - Температура точки росы - температура, при понижении до которой содержащийся в воздухе водяной пар достигнет насыщения.
f - Относительная влажность воздуха - влажноcть воздуха, измеренная на высоте 2 м над землей.
Te - Эффективная температура - температура, которую ощущает одетый по сезону человек в тени. Характеристика душности погоды. При расчете учитывается влияние влажности воздуха и скорости ветра на теплоощущения человека.
Tes - Эффективная температура на солнце - температура, которую ощущает человек, с поправкой на солнечный нагрев. Характеристика знойности погоды. Зависит от высоты солнца над горизонтом, облачности и скорости ветра. Ночью, в пасмурную погоду, а также при ветре 12 м/с и более поправка равна нулю.
P - Атмосферное давление - приведенное к уровню моря атмосферное давление.
Po - Атмосферное давление - измеренное на уровне метеостанции атмосферное давление.
Tmin - Минимальная температура - минимум температуры воздуха на высоте 2 м над землей.
Tmax - Максимальная температура - максимум температуры воздуха на высоте 2 м над землей.
R - Количество осадков - Количество выпавших осадков за период времени, мм. При наведении курсора мыши на число - период времени, за который выпало указанное количество осадков.
R24 - Количество осадков - Количество выпавших осадков за 24 часа, мм.
S - Снежный покров - Высота снежного покрова, см. При наведении курсора мыши на число - состояние снежного покрова и степень покрытия местности в баллах.